Portoroz, Slovenia

11:14 PM CEST on October 18, 2017 (GMT +0200)
Portoroz

Weather History for LJPZ - December, 2013

Change the Weather History Date:

Thursday, December 5, 2013

  Actual Average Record
Temperature  
Mean Temperature 42 °F -  
Max Temperature 53 °F - - ()
Min Temperature 30 °F - - ()
Degree Days  
Heating Degree Days 24    
Moisture  
Dew Point 32 °F    
Average Humidity 77    
Maximum Humidity 87    
Minimum Humidity 50    
Precipitation  
Precipitation 0.00 in - - ()
Sea Level Pressure  
Sea Level Pressure 30.13 in    
Wind  
Wind Speed 9 mph ()    
Max Wind Speed 14 mph    
Max Gust Speed -    
Visibility 6.2 miles    
Events      
T = Trace of Precipitation, MM = Missing Value Source: Averaged Metar Reports

Daily Weather History Graph

Daily Weather History Graph

Search for Another Location

Airport or City:

Trip Planner

Search our weather history database for the weather conditions in past years. The results will help you decide how hot, cold, wet, or windy it might be!

Date:

Astronomy

Dec. 05, 2013 Rise Set
Actual Time 7:29 AM CET 4:22 PM CET
Civil Twilight 6:56 AM CET 4:56 PM CET
Nautical Twilight 6:18 AM CET 5:33 PM CET
Astronomical Twilight 5:43 AM CET 6:09 PM CET
Moon 9:32 AM CET (12/5) 7:27 PM CET (12/5)
Length of Visible Light 10h 00m
Length of Day
8h 52m
Waxing Crescent, 9% of the Moon is Illuminated
Dec 5
Waxing Crescent
Dec 9
First Quarter
Dec 17
Full
Dec 25
Last Quarter
Jan 1
New

Hourly Weather History & Observations

Time (CET) Temp. Windchill Dew Point Humidity Pressure Visibility Wind Dir Wind Speed Gust Speed Precip Events Conditions
12:00 AM 32.0 °F 23.0 °F 28.4 °F 87% 30.18 in 6.2 mi ESE 11.5 mph - N/A   Unknown
12:30 AM 32.0 °F 23.0 °F 28.4 °F 87% 30.15 in 6.2 mi ESE 11.5 mph - N/A   Unknown
1:00 AM 32.0 °F 23.0 °F 28.4 °F 87% 30.15 in 6.2 mi ESE 11.5 mph - N/A   Unknown
1:30 AM 32.0 °F 23.0 °F 28.4 °F 87% 30.15 in 6.2 mi ESE 11.5 mph - N/A   Unknown
2:00 AM 32.0 °F 23.0 °F 28.4 °F 87% 30.15 in 6.2 mi ESE 11.5 mph - N/A   Unknown
2:30 AM 32.0 °F 23.0 °F 28.4 °F 87% 30.15 in 6.2 mi ESE 11.5 mph - N/A   Unknown
3:00 AM 32.0 °F 23.6 °F 28.4 °F 87% 30.15 in 6.2 mi ESE 10.4 mph - N/A   Unknown
3:30 AM 32.0 °F 23.0 °F 26.6 °F 80% 30.15 in 6.2 mi ESE 11.5 mph - N/A   Unknown
4:00 AM 32.0 °F 23.0 °F 26.6 °F 80% 30.15 in 6.2 mi ESE 11.5 mph - N/A   Unknown
4:30 AM 32.0 °F 23.6 °F 26.6 °F 80% 30.15 in 6.2 mi ESE 10.4 mph - N/A   Unknown
5:00 AM 32.0 °F 23.6 °F 26.6 °F 80% 30.15 in 6.2 mi ESE 10.4 mph - N/A   Unknown
5:30 AM 30.2 °F 22.6 °F 26.6 °F 86% 30.15 in 6.2 mi ESE 8.1 mph - N/A   Unknown
6:00 AM 32.0 °F 24.2 °F 24.8 °F 75% 30.15 in - ESE 9.2 mph - N/A   Clear
6:30 AM 30.2 °F 21.3 °F 24.8 °F 80% 30.15 in - ESE 10.4 mph - N/A   Clear
7:00 AM 30.2 °F 20.8 °F 24.8 °F 80% 30.15 in - ESE 11.5 mph - N/A   Clear
7:30 AM 30.2 °F 21.9 °F 24.8 °F 80% 30.15 in - ESE 9.2 mph - N/A   Clear
8:00 AM 32.0 °F 23.0 °F 26.6 °F 80% 30.18 in - ESE 11.5 mph - N/A   Clear
8:30 AM 33.8 °F 25.8 °F 26.6 °F 75% 30.18 in - ESE 10.4 mph - N/A   Clear
9:00 AM 35.6 °F 29.2 °F 26.6 °F 70% 30.18 in - ESE 8.1 mph - N/A   Clear
9:30 AM 37.4 °F 32.1 °F 28.4 °F 70% 30.18 in - ESE 6.9 mph - N/A   Clear
10:00 AM 41.0 °F 37.1 °F 30.2 °F 65% 30.21 in - ESE 5.8 mph - N/A   Clear
10:30 AM 44.6 °F 42.2 °F 30.2 °F 57% 30.21 in - SE 4.6 mph - N/A   Clear
11:00 AM 50.0 °F - 33.8 °F 54% 30.21 in - Variable 1.2 mph - N/A   Clear
11:30 AM 50.0 °F - 37.4 °F 62% 30.21 in - West 3.5 mph - N/A   Clear
12:00 PM 51.8 °F - 33.8 °F 50% 30.18 in - Calm Calm - N/A   Clear
12:30 PM 53.6 °F - 35.6 °F 51% 30.18 in - Variable 1.2 mph - N/A   Clear
1:00 PM 53.6 °F - 35.6 °F 51% 30.15 in - WSW 3.5 mph - N/A   Clear
1:30 PM 53.6 °F - 39.2 °F 58% 30.15 in - WNW 2.3 mph - N/A   Clear
2:00 PM 53.6 °F - 42.8 °F 67% 30.15 in - NW 5.8 mph - N/A   Clear
2:30 PM 51.8 °F - 42.8 °F 71% 30.15 in - Variable 2.3 mph - N/A   Clear
3:00 PM 50.0 °F - 42.8 °F 76% 30.15 in - NW 3.5 mph - N/A   Clear
3:30 PM 48.2 °F - 41.0 °F 76% 30.15 in - North 1.2 mph - N/A   Clear
4:00 PM 46.4 °F 45.2 °F 41.0 °F 81% 30.12 in - ESE 3.5 mph - N/A   Clear
4:30 PM 42.8 °F 38.6 °F 39.2 °F 87% 30.12 in - ESE 6.9 mph - N/A   Clear
5:00 PM 41.0 °F 35.2 °F 35.6 °F 81% 30.12 in - ESE 9.2 mph - N/A   Clear
5:30 PM 39.2 °F 32.5 °F 35.6 °F 87% 30.09 in - ESE 10.4 mph - N/A   Clear
6:00 PM 39.2 °F 32.0 °F 33.8 °F 81% 30.09 in - ESE 11.5 mph - N/A   Clear
6:30 PM 39.2 °F 32.0 °F 33.8 °F 81% 30.09 in - ESE 11.5 mph - N/A   Clear
7:00 PM 37.4 °F 29.8 °F 33.8 °F 87% 30.09 in - ESE 11.5 mph - N/A   Clear
7:30 PM 35.6 °F 27.1 °F 32.0 °F 87% 30.09 in - ESE 12.7 mph - N/A   Clear
8:00 PM 39.2 °F 32.5 °F 32.0 °F 75% 30.06 in - SE 10.4 mph - N/A   Clear
8:30 PM 37.4 °F 29.8 °F 32.0 °F 81% 30.06 in - ESE 11.5 mph - N/A   Clear
9:00 PM 35.6 °F 27.1 °F 32.0 °F 87% 30.06 in - ESE 12.7 mph - N/A   Clear
9:30 PM 35.6 °F 26.6 °F 32.0 °F 87% 30.04 in - ESE 13.8 mph - N/A   Clear
10:00 PM 35.6 °F 27.1 °F 32.0 °F 87% 30.04 in - ESE 12.7 mph - N/A   Clear
10:30 PM 35.6 °F 26.6 °F 32.0 °F 87% 30.04 in 6.2 mi ESE 13.8 mph - N/A   Unknown
11:00 PM 37.4 °F 29.8 °F 33.8 °F 87% 30.01 in 6.2 mi ESE 11.5 mph - N/A   Unknown
11:30 PM 35.6 °F 26.6 °F 32.0 °F 87% 30.01 in 6.2 mi ESE 13.8 mph - N/A   Unknown